| time (UTC) | temp F | wind direction | speed MPH | gust MPH | rain 1hr in | rain 24hr in | rain mn in | humidity % | barometer mb |
| 20260508004751 | 45 | 115 | 3.0 | 0.0 | 0.00 | 0.00 | 0.00 | 99 | 1027.8 |
| 20260508003754 | 45 | 150 | 3.0 | 0.0 | 0.00 | 0.00 | 0.00 | 99 | 1027.5 |
| 20260508002751 | 45 | 269 | 2.0 | 0.0 | 0.00 | 0.00 | 0.00 | 98 | 1028.0 |
| 20260508001750 | 45 | 186 | 2.0 | 0.0 | 0.00 | 0.00 | 0.00 | 98 | 1027.8 |
| 20260508000750 | 45 | 138 | 2.0 | 0.0 | 0.00 | 0.00 | 0.00 | 98 | 1027.7 |
| 20260507235750 | 45 | 212 | 0.0 | 0.0 | 0.00 | 0.00 | 0.00 | 98 | 1028.0 |
| 20260507234750 | 45 | 76 | 0.0 | 0.0 | 0.00 | 0.00 | 0.00 | 98 | 1027.9 |
| 20260507233751 | 46 | 124 | 2.0 | 0.0 | 0.00 | 0.00 | 0.00 | 98 | 1027.7 |
| 20260507232750 | 45 | 155 | 0.0 | 0.0 | 0.00 | 0.00 | 0.00 | 98 | 1027.8 |
| 20260507231750 | 46 | 80 | 0.0 | 0.0 | 0.00 | 0.00 | 0.00 | 98 | 1028.1 |
| 20260507230750 | 45 | 279 | 0.0 | 0.0 | 0.00 | 0.00 | 0.00 | 98 | 1028.2 |
| 20260507225751 | 46 | 102 | 7.0 | 0.0 | 0.00 | 0.00 | 0.00 | 98 | 1027.9 |
| 20260507224751 | 46 | 229 | 0.0 | 0.0 | 0.00 | 0.00 | 0.00 | 98 | 1027.9 |
| 20260507223750 | 46 | 168 | 0.0 | 0.0 | 0.00 | 0.00 | 0.00 | 98 | 1028.0 |
| 20260507222750 | 46 | 130 | 0.0 | 0.0 | 0.00 | 0.00 | 0.00 | 97 | 1027.5 |
| 20260507221750 | 47 | 72 | 0.0 | 0.0 | 0.00 | 0.00 | 0.00 | 97 | 1027.5 |
| 20260507220751 | 48 | 143 | 2.0 | 0.0 | 0.00 | 0.00 | 0.00 | 98 | 1027.3 |
| 20260507215750 | 48 | 209 | 2.0 | 0.0 | 0.00 | 0.00 | 0.00 | 98 | 1027.4 |
| 20260507214750 | 47 | 182 | 0.0 | 0.0 | 0.00 | 0.00 | 0.00 | 98 | 1027.3 |
| 20260507213751 | 47 | 134 | 0.0 | 0.0 | 0.00 | 0.00 | 0.00 | 98 | 1027.3 |
| 20260507212750 | 47 | 246 | 0.0 | 0.0 | 0.00 | 0.00 | 0.00 | 97 | 1027.5 |
| 20260507211750 | 48 | 135 | 3.0 | 0.0 | 0.00 | 0.00 | 0.00 | 98 | 1027.1 |
| 20260507210751 | 47 | 52 | 0.0 | 0.0 | 0.00 | 0.00 | 0.00 | 98 | 1026.7 |
| 20260507205751 | 48 | 325 | 0.0 | 0.0 | 0.00 | 0.00 | 0.00 | 97 | 1027.1 |
| 20260507204751 | 48 | 36 | 0.0 | 0.0 | 0.00 | 0.00 | 0.00 | 97 | 1026.8 |
| 20260507203750 | 49 | 262 | 2.0 | 0.0 | 0.00 | 0.00 | 0.00 | 97 | 1026.7 |
| 20260507202750 | 49 | 150 | 0.0 | 0.0 | 0.00 | 0.00 | 0.00 | 97 | 1026.5 |
| 20260507201750 | 49 | 345 | 2.0 | 0.0 | 0.00 | 0.00 | 0.00 | 97 | 1026.5 |
| 20260507200751 | 49 | 173 | 0.0 | 0.0 | 0.00 | 0.00 | 0.00 | 97 | 1026.4 |
| 20260507195751 | 50 | 249 | 0.0 | 0.0 | 0.00 | 0.00 | 0.00 | 97 | 1026.5 |
| 20260507194752 | 50 | 98 | 4.0 | 0.0 | 0.00 | 0.00 | 0.00 | 97 | 1026.1 |
| 20260507193752 | 50 | 141 | 0.0 | 0.0 | 0.00 | 0.00 | 0.00 | 96 | 1026.0 |
| 20260507192751 | 51 | 119 | 0.0 | 0.0 | 0.00 | 0.00 | 0.00 | 96 | 1025.7 |
| 20260507191751 | 51 | 321 | 2.0 | 0.0 | 0.00 | 0.00 | 0.00 | 96 | 1025.6 |
| 20260507190751 | 51 | 150 | 0.0 | 0.0 | 0.00 | 0.00 | 0.00 | 95 | 1025.4 |
| 20260507185751 | 52 | 148 | 2.0 | 0.0 | 0.00 | 0.00 | 0.00 | 94 | 1024.9 |
| 20260507184750 | 52 | 160 | 2.0 | 0.0 | 0.00 | 0.00 | 0.00 | 94 | 1025.1 |
| 20260507183751 | 53 | 111 | 2.0 | 0.0 | 0.00 | 0.00 | 0.00 | 93 | 1025.0 |
| 20260507182750 | 54 | 118 | 1.0 | 0.0 | 0.00 | 0.00 | 0.00 | 92 | 1024.9 |
| 20260507181751 | 54 | 110 | 0.0 | 0.0 | 0.00 | 0.00 | 0.00 | 91 | 1024.8 |
| 20260507180749 | 55 | 29 | 0.0 | 0.0 | 0.00 | 0.00 | 0.00 | 89 | 1024.7 |
| 20260507175749 | 56 | 121 | 0.0 | 0.0 | 0.00 | 0.00 | 0.00 | 89 | 1024.4 |
| 20260507174750 | 56 | 162 | 2.0 | 0.0 | 0.00 | 0.00 | 0.00 | 87 | 1024.2 |
| 20260507173753 | 56 | 162 | 1.0 | 0.0 | 0.00 | 0.00 | 0.00 | 86 | 1024.3 |
| 20260507172750 | 56 | 100 | 5.0 | 0.0 | 0.00 | 0.00 | 0.00 | 87 | 1024.1 |
| 20260507171750 | 56 | 126 | 5.0 | 0.0 | 0.00 | 0.00 | 0.00 | 87 | 1024.3 |
| 20260507170750 | 56 | 117 | 6.0 | 0.0 | 0.00 | 0.00 | 0.00 | 86 | 1024.3 |
| 20260507165750 | 56 | 103 | 7.0 | 0.0 | 0.00 | 0.00 | 0.00 | 85 | 1024.1 |
| 20260507164751 | 56 | 111 | 5.0 | 0.0 | 0.00 | 0.00 | 0.00 | 85 | 1024.3 |
| 20260507163749 | 56 | 110 | 7.0 | 0.0 | 0.00 | 0.00 | 0.00 | 84 | 1024.4 |
| 20260507162750 | 56 | 113 | 9.0 | 0.0 | 0.00 | 0.00 | 0.00 | 83 | 1024.4 |
| 20260507161750 | 56 | 125 | 7.0 | 0.0 | 0.00 | 0.00 | 0.00 | 84 | 1024.2 |
| 20260507160750 | 56 | 123 | 7.0 | 0.0 | 0.00 | 0.00 | 0.00 | 86 | 1024.3 |
| 20260507155749 | 56 | 114 | 10.0 | 0.0 | 0.00 | 0.00 | 0.00 | 87 | 1024.3 |
| 20260507154750 | 56 | 125 | 7.0 | 0.0 | 0.00 | 0.00 | 0.00 | 88 | 1024.1 |
| 20260507153749 | 56 | 113 | 5.0 | 0.0 | 0.00 | 0.00 | 0.00 | 86 | 1024.3 |
| 20260507152750 | 56 | 119 | 3.0 | 0.0 | 0.00 | 0.00 | 0.00 | 87 | 1024.3 |
| 20260507151750 | 56 | 114 | 9.0 | 0.0 | 0.00 | 0.00 | 0.00 | 86 | 1024.4 |
| 20260507150749 | 56 | 118 | 9.0 | 0.0 | 0.00 | 0.00 | 0.00 | 88 | 1024.1 |
| 20260507145750 | 55 | 95 | 3.0 | 0.0 | 0.00 | 0.00 | 0.00 | 90 | 1024.6 |
| 20260507144750 | 55 | 106 | 4.0 | 0.0 | 0.00 | 0.00 | 0.00 | 90 | 1024.5 |
| 20260507143750 | 54 | 98 | 5.0 | 0.0 | 0.00 | 0.00 | 0.00 | 91 | 1024.5 |
| 20260507142750 | 55 | 155 | 3.0 | 0.0 | 0.00 | 0.00 | 0.00 | 91 | 1024.5 |
| 20260507141751 | 55 | 96 | 14.0 | 0.0 | 0.00 | 0.00 | 0.00 | 89 | 1024.3 |
| 20260507140750 | 56 | 122 | 8.0 | 0.0 | 0.00 | 0.00 | 0.00 | 87 | 1024.3 |
| 20260507135750 | 56 | 114 | 9.0 | 0.0 | 0.00 | 0.00 | 0.00 | 88 | 1024.3 |
| 20260507134750 | 57 | 137 | 11.0 | 0.0 | 0.00 | 0.00 | 0.00 | 85 | 1024.2 |
| 20260507133750 | 57 | 115 | 6.0 | 0.0 | 0.00 | 0.00 | 0.00 | 83 | 1024.3 |
| 20260507132750 | 57 | 115 | 21.0 | 0.0 | 0.00 | 0.00 | 0.00 | 82 | 1024.0 |
| 20260507131750 | 58 | 118 | 26.0 | 0.0 | 0.00 | 0.00 | 0.00 | 81 | 1024.0 |
| 20260507130749 | 58 | 124 | 17.0 | 0.0 | 0.00 | 0.00 | 0.00 | 80 | 1023.9 |
| 20260507125749 | 59 | 117 | 4.0 | 0.0 | 0.00 | 0.00 | 0.00 | 76 | 1023.9 |
| 20260507124749 | 59 | 96 | 17.0 | 0.0 | 0.00 | 0.00 | 0.00 | 77 | 1023.7 |
| 20260507123749 | 59 | 120 | 13.0 | 0.0 | 0.00 | 0.00 | 0.00 | 76 | 1023.2 |
| 20260507122749 | 59 | 123 | 5.0 | 0.0 | 0.00 | 0.00 | 0.00 | 77 | 1023.4 |
| 20260507121749 | 60 | 113 | 12.0 | 0.0 | 0.00 | 0.00 | 0.00 | 77 | 1023.4 |
| 20260507120749 | 60 | 160 | 9.0 | 0.0 | 0.00 | 0.00 | 0.00 | 75 | 1023.1 |
| 20260507115749 | 59 | 150 | 7.0 | 0.0 | 0.00 | 0.00 | 0.00 | 78 | 1023.2 |
| 20260507114749 | 60 | 117 | 11.0 | 0.0 | 0.00 | 0.00 | 0.00 | 76 | 1023.1 |
| 20260507113749 | 61 | 105 | 6.0 | 0.0 | 0.00 | 0.00 | 0.00 | 73 | 1022.8 |
| 20260507112749 | 62 | 338 | 4.0 | 0.0 | 0.00 | 0.00 | 0.00 | 64 | 1022.8 |
| 20260507111749 | 64 | 119 | 5.0 | 0.0 | 0.00 | 0.00 | 0.00 | 63 | 1022.6 |
| 20260507110749 | 62 | 340 | 1.0 | 0.0 | 0.00 | 0.00 | 0.00 | 65 | 1023.0 |
| 20260507105749 | 62 | 237 | 1.0 | 0.0 | 0.00 | 0.00 | 0.00 | 65 | 1023.2 |
| 20260507104749 | 60 | 155 | 3.0 | 0.0 | 0.00 | 0.00 | 0.00 | 65 | 1023.6 |
| 20260507103749 | 61 | 354 | 7.0 | 0.0 | 0.00 | 0.00 | 0.00 | 67 | 1023.1 |
| 20260507102749 | 61 | 29 | 5.0 | 0.0 | 0.00 | 0.00 | 0.00 | 69 | 1023.7 |
| 20260507101749 | 60 | 312 | 3.0 | 0.0 | 0.00 | 0.00 | 0.00 | 69 | 1023.9 |
| 20260507100749 | 60 | 299 | 7.0 | 0.0 | 0.00 | 0.00 | 0.00 | 69 | 1023.8 |
| 20260507095749 | 61 | 307 | 6.0 | 0.0 | 0.00 | 0.00 | 0.00 | 68 | 1023.6 |
| 20260507094749 | 60 | 20 | 6.0 | 0.0 | 0.00 | 0.00 | 0.00 | 69 | 1023.8 |
| 20260507093748 | 59 | 28 | 8.0 | 0.0 | 0.00 | 0.00 | 0.00 | 70 | 1024.0 |
| 20260507092749 | 59 | 313 | 4.0 | 0.0 | 0.00 | 0.00 | 0.00 | 72 | 1023.8 |
| 20260507091749 | 58 | 0 | 6.0 | 0.0 | 0.00 | 0.00 | 0.00 | 73 | 1024.2 |
| 20260507090748 | 57 | 3 | 5.0 | 0.0 | 0.00 | 0.00 | 0.00 | 74 | 1024.2 |
| 20260507085749 | 56 | 310 | 5.0 | 0.0 | 0.00 | 0.00 | 0.00 | 76 | 1024.4 |
| 20260507084749 | 56 | 24 | 5.0 | 0.0 | 0.00 | 0.00 | 0.00 | 76 | 1024.3 |
| 20260507083748 | 56 | 13 | 9.0 | 0.0 | 0.00 | 0.00 | 0.00 | 77 | 1024.4 |
| 20260507082748 | 57 | 282 | 2.0 | 0.0 | 0.00 | 0.00 | 0.00 | 78 | 1024.3 |
| 20260507081749 | 56 | 310 | 4.0 | 0.0 | 0.00 | 0.00 | 0.00 | 78 | 1024.1 |
| 20260507080748 | 57 | 341 | 6.0 | 0.0 | 0.00 | 0.00 | 0.00 | 78 | 1024.1 |
| 20260507075748 | 56 | 333 | 7.0 | 0.0 | 0.00 | 0.00 | 0.00 | 80 | 1024.2 |
| 20260507074749 | 55 | 317 | 4.0 | 0.0 | 0.00 | 0.00 | 0.00 | 79 | 1024.5 |
| 20260507073748 | 54 | 32 | 6.0 | 0.0 | 0.00 | 0.00 | 0.00 | 78 | 1024.7 |
| 20260507072748 | 53 | 175 | 0.0 | 0.0 | 0.00 | 0.00 | 0.00 | 78 | 1024.6 |
| 20260507071748 | 51 | 7 | 1.0 | 0.0 | 0.00 | 0.00 | 0.00 | 78 | 1025.0 |
| 20260507070748 | 51 | 304 | 0.0 | 0.0 | 0.00 | 0.00 | 0.00 | 79 | 1025.0 |
| 20260507065748 | 50 | 150 | 5.0 | 0.0 | 0.00 | 0.00 | 0.00 | 81 | 1024.9 |
| 20260507064750 | 48 | 158 | 7.0 | 0.0 | 0.00 | 0.00 | 0.00 | 84 | 1025.3 |
| 20260507063750 | 48 | 152 | 6.0 | 0.0 | 0.00 | 0.00 | 0.00 | 86 | 1025.4 |
| 20260507062749 | 46 | 126 | 3.0 | 0.0 | 0.00 | 0.00 | 0.00 | 87 | 1025.9 |
| 20260507061749 | 46 | 147 | 3.0 | 0.0 | 0.00 | 0.00 | 0.00 | 88 | 1025.6 |
| 20260507060750 | 45 | 177 | 5.0 | 0.0 | 0.00 | 0.00 | 0.00 | 89 | 1026.2 |
| 20260507055748 | 45 | 92 | 2.0 | 0.0 | 0.00 | 0.00 | 0.00 | 93 | 1026.1 |
| 20260507054749 | 44 | 259 | 0.0 | 0.0 | 0.00 | 0.00 | 0.00 | 93 | 1026.2 |
| 20260507053749 | 43 | 168 | 6.0 | 0.0 | 0.00 | 0.00 | 0.00 | 94 | 1026.2 |
| 20260507052748 | 43 | 157 | 1.0 | 0.0 | 0.00 | 0.00 | 0.00 | 95 | 1026.1 |
| 20260507051748 | 43 | 154 | 8.0 | 0.0 | 0.00 | 0.00 | 0.00 | 97 | 1025.9 |
| 20260507050749 | 42 | 140 | 2.0 | 0.0 | 0.00 | 0.00 | 0.00 | 97 | 1026.3 |
| 20260507045749 | 42 | 140 | 3.0 | 0.0 | 0.00 | 0.00 | 0.00 | 98 | 1026.1 |
| 20260507043749 | 41 | 127 | 4.0 | 0.0 | 0.00 | 0.00 | 0.00 | 98 | 1025.8 |
| 20260507042748 | 41 | 224 | 0.0 | 0.0 | 0.00 | 0.00 | 0.00 | 97 | 1026.0 |
| 20260507041748 | 41 | 102 | 2.0 | 0.0 | 0.00 | 0.00 | 0.00 | 98 | 1026.1 |
| 20260507040748 | 41 | 101 | 2.0 | 0.0 | 0.00 | 0.00 | 0.00 | 97 | 1026.0 |
| 20260507035748 | 41 | 209 | 0.0 | 0.0 | 0.00 | 0.00 | 0.00 | 97 | 1025.9 |
| 20260507034749 | 41 | 158 | 0.0 | 0.0 | 0.00 | 0.00 | 0.00 | 97 | 1025.7 |
| 20260507033749 | 42 | 269 | 0.0 | 0.0 | 0.00 | 0.00 | 0.00 | 97 | 1025.4 |
| 20260507032749 | 42 | 153 | 2.0 | 0.0 | 0.00 | 0.00 | 0.00 | 97 | 1025.4 |
| 20260507031748 | 42 | 168 | 0.0 | 0.0 | 0.00 | 0.00 | 0.00 | 97 | 1025.3 |
| 20260507030748 | 42 | 117 | 2.0 | 0.0 | 0.00 | 0.00 | 0.00 | 97 | 1025.1 |
| 20260507025749 | 42 | 245 | 1.0 | 0.0 | 0.00 | 0.00 | 0.00 | 97 | 1025.1 |
| 20260507024749 | 42 | 298 | 1.0 | 0.0 | 0.00 | 0.00 | 0.00 | 97 | 1025.4 |
| 20260507023750 | 42 | 315 | 0.0 | 0.0 | 0.00 | 0.00 | 0.00 | 97 | 1025.2 |
| 20260507022749 | 42 | 104 | 4.0 | 0.0 | 0.00 | 0.00 | 0.00 | 97 | 1025.3 |
| 20260507021749 | 42 | 265 | 2.0 | 0.0 | 0.00 | 0.00 | 0.00 | 97 | 1025.1 |
| 20260507020749 | 42 | 160 | 0.0 | 0.0 | 0.00 | 0.00 | 0.00 | 97 | 1025.0 |
| 20260507015748 | 43 | 122 | 1.0 | 0.0 | 0.00 | 0.00 | 0.00 | 97 | 1025.0 |
| 20260507014749 | 43 | 123 | 1.0 | 0.0 | 0.00 | 0.00 | 0.00 | 97 | 1024.7 |
| 20260507013749 | 43 | 77 | 2.0 | 0.0 | 0.00 | 0.00 | 0.00 | 97 | 1024.7 |
| 20260507012749 | 43 | 262 | 1.0 | 0.0 | 0.00 | 0.00 | 0.00 | 97 | 1024.8 |
| 20260507011749 | 43 | 120 | 3.0 | 0.0 | 0.00 | 0.00 | 0.00 | 97 | 1024.6 |
| 20260507010748 | 44 | 134 | 4.0 | 0.0 | 0.00 | 0.00 | 0.00 | 97 | 1024.7 |
| 20260507005749 | 44 | 133 | 5.0 | 0.0 | 0.00 | 0.00 | 0.00 | 97 | 1024.9 |